| time (UTC) | temp F | wind direction | speed MPH | gust MPH | rain 1hr in | rain 24hr in | rain mn in | humidity % | barometer mb |
| 20260831021550 | 71 | 300 | 4.0 | 8.0 | 0.00 | 0.00 | 0.00 | 51 | 1015.9 |
| 20260831020104 | 71 | 307 | 3.0 | 9.0 | 0.00 | 0.00 | 0.00 | 50 | 1015.9 |
| 20260831014557 | 72 | 329 | 3.0 | 9.0 | 0.00 | 0.00 | 0.00 | 49 | 1016.1 |
| 20260831013103 | 72 | 338 | 3.0 | 11.0 | 0.00 | 0.00 | 0.00 | 48 | 1016.4 |
| 20260831011557 | 73 | 5 | 5.0 | 10.0 | 0.00 | 0.00 | 0.00 | 47 | 1016.4 |
| 20260831010055 | 73 | 238 | 3.0 | 10.0 | 0.00 | 0.00 | 0.00 | 47 | 1016.6 |
| 20260831004555 | 73 | 355 | 4.0 | 8.0 | 0.00 | 0.00 | 0.00 | 47 | 1016.6 |
| 20260831003054 | 74 | 299 | 3.0 | 10.0 | 0.00 | 0.00 | 0.00 | 44 | 1016.8 |
| 20260831001556 | 75 | 5 | 2.0 | 8.0 | 0.00 | 0.00 | 0.00 | 45 | 1016.8 |
| 20260831000059 | 75 | 267 | 3.0 | 10.0 | 0.00 | 0.00 | 0.00 | 43 | 1016.9 |
| 20260830234555 | 75 | 315 | 4.0 | 10.0 | 0.00 | 0.00 | 0.00 | 44 | 1017.0 |
| 20260830233053 | 74 | 264 | 3.0 | 9.0 | 0.00 | 0.00 | 0.00 | 43 | 1017.2 |
| 20260830231556 | 75 | 352 | 3.0 | 8.0 | 0.00 | 0.00 | 0.00 | 43 | 1017.3 |
| 20260830230054 | 74 | 28 | 6.0 | 11.0 | 0.00 | 0.00 | 0.00 | 43 | 1017.5 |
| 20260830224549 | 74 | 323 | 5.0 | 11.0 | 0.00 | 0.00 | 0.00 | 43 | 1017.8 |
| 20260830223110 | 72 | 308 | 1.0 | 9.0 | 0.00 | 0.00 | 0.00 | 45 | 1017.9 |
| 20260830221556 | 73 | 101 | 2.0 | 9.0 | 0.00 | 0.00 | 0.00 | 45 | 1018.3 |
| 20260830220105 | 74 | 273 | 3.0 | 10.0 | 0.00 | 0.00 | 0.00 | 45 | 1018.5 |
| 20260830214615 | 74 | 271 | 4.0 | 11.0 | 0.00 | 0.00 | 0.00 | 43 | 1018.7 |
| 20260830213048 | 72 | 291 | 5.0 | 12.0 | 0.00 | 0.00 | 0.00 | 45 | 1018.9 |
| 20260830211557 | 70 | 320 | 1.0 | 11.0 | 0.00 | 0.00 | 0.00 | 48 | 1019.0 |
| 20260830210117 | 72 | 206 | 3.0 | 10.0 | 0.00 | 0.00 | 0.00 | 45 | 1019.2 |
| 20260830204559 | 71 | 319 | 2.0 | 5.0 | 0.00 | 0.00 | 0.00 | 47 | 1019.4 |
| 20260830203051 | 72 | 317 | 2.0 | 9.0 | 0.00 | 0.00 | 0.00 | 48 | 1019.6 |
| 20260830201601 | 69 | 261 | 1.0 | 7.0 | 0.00 | 0.00 | 0.00 | 49 | 1019.8 |
| 20260830200055 | 68 | 344 | 3.0 | 10.0 | 0.00 | 0.00 | 0.00 | 54 | 1019.9 |
| 20260830194557 | 67 | 263 | 3.0 | 8.0 | 0.00 | 0.00 | 0.00 | 50 | 1020.0 |
| 20260830193102 | 67 | 337 | 3.0 | 9.0 | 0.00 | 0.00 | 0.00 | 54 | 1020.2 |
| 20260830191554 | 66 | 293 | 2.0 | 8.0 | 0.00 | 0.00 | 0.00 | 54 | 1020.3 |
| 20260830190124 | 66 | 273 | 3.0 | 8.0 | 0.00 | 0.00 | 0.00 | 56 | 1020.4 |
| 20260830184603 | 64 | 318 | 2.0 | 5.0 | 0.00 | 0.00 | 0.00 | 61 | 1020.6 |
| 20260830183059 | 64 | 340 | 1.0 | 4.0 | 0.00 | 0.00 | 0.00 | 61 | 1020.6 |
| 20260830181556 | 65 | 279 | 2.0 | 8.0 | 0.00 | 0.00 | 0.00 | 59 | 1020.6 |
| 20260830180110 | 63 | 109 | 0.0 | 5.0 | 0.00 | 0.00 | 0.00 | 62 | 1020.6 |
| 20260830174606 | 64 | 0 | 0.0 | 6.0 | 0.00 | 0.00 | 0.00 | 60 | 1020.6 |
| 20260830173057 | 66 | 271 | 2.0 | 5.0 | 0.00 | 0.00 | 0.00 | 63 | 1020.7 |
| 20260830171550 | 63 | 360 | 4.0 | 8.0 | 0.00 | 0.00 | 0.00 | 63 | 1020.7 |
| 20260830170100 | 62 | 84 | 1.0 | 4.0 | 0.00 | 0.00 | 0.00 | 69 | 1020.7 |
| 20260830164559 | 61 | 86 | 2.0 | 4.0 | 0.00 | 0.00 | 0.00 | 74 | 1020.6 |
| 20260830163101 | 59 | 0 | 1.0 | 3.0 | 0.00 | 0.00 | 0.00 | 79 | 1020.8 |
| 20260830161555 | 56 | 0 | 0.0 | 2.0 | 0.00 | 0.00 | 0.00 | 82 | 1021.0 |
| 20260830160055 | 55 | 0 | 0.0 | 0.0 | 0.00 | 0.00 | 0.00 | 84 | 1020.9 |
| 20260830154600 | 54 | 0 | 0.0 | 0.0 | 0.00 | 0.00 | 0.00 | 84 | 1021.0 |
| 20260830153100 | 54 | 0 | 0.0 | 0.0 | 0.00 | 0.00 | 0.00 | 86 | 1021.1 |
| 20260830151601 | 53 | 0 | 0.0 | 0.0 | 0.00 | 0.00 | 0.00 | 86 | 1021.3 |
| 20260830150101 | 52 | 0 | 0.0 | 0.0 | 0.00 | 0.00 | 0.00 | 86 | 1021.2 |
| 20260830144556 | 52 | 0 | 0.0 | 0.0 | 0.00 | 0.00 | 0.00 | 86 | 1021.3 |
| 20260830143058 | 51 | 0 | 0.0 | 0.0 | 0.00 | 0.00 | 0.00 | 86 | 1021.3 |
| 20260830141559 | 51 | 0 | 0.0 | 0.0 | 0.00 | 0.00 | 0.00 | 86 | 1021.3 |
| 20260830140052 | 51 | 0 | 0.0 | 0.0 | 0.00 | 0.00 | 0.00 | 85 | 1021.2 |
| 20260830134550 | 51 | 0 | 0.0 | 0.0 | 0.00 | 0.00 | 0.00 | 86 | 1021.0 |
| 20260830133100 | 51 | 0 | 0.0 | 0.0 | 0.00 | 0.00 | 0.00 | 86 | 1021.0 |
| 20260830131558 | 51 | 0 | 0.0 | 0.0 | 0.00 | 0.00 | 0.00 | 86 | 1021.0 |
| 20260830130057 | 51 | 0 | 0.0 | 0.0 | 0.00 | 0.00 | 0.00 | 86 | 1020.9 |
| 20260830124546 | 51 | 0 | 0.0 | 0.0 | 0.00 | 0.00 | 0.00 | 86 | 1020.8 |
| 20260830123102 | 50 | 0 | 0.0 | 0.0 | 0.00 | 0.00 | 0.00 | 86 | 1020.8 |
| 20260830121553 | 50 | 0 | 0.0 | 3.0 | 0.00 | 0.00 | 0.00 | 87 | 1020.8 |
| 20260830120104 | 50 | 0 | 0.0 | 0.0 | 0.00 | 0.00 | 0.00 | 86 | 1020.7 |
| 20260830114557 | 50 | 0 | 0.0 | 0.0 | 0.00 | 0.00 | 0.00 | 86 | 1020.8 |
| 20260830113047 | 50 | 0 | 0.0 | 0.0 | 0.00 | 0.00 | 0.00 | 86 | 1020.7 |
| 20260830111556 | 51 | 0 | 0.0 | 0.0 | 0.00 | 0.00 | 0.00 | 85 | 1020.6 |
| 20260830110059 | 51 | 0 | 0.0 | 2.0 | 0.00 | 0.00 | 0.00 | 85 | 1020.7 |
| 20260830104606 | 51 | 0 | 0.0 | 2.0 | 0.00 | 0.00 | 0.00 | 85 | 1020.7 |
| 20260830103101 | 51 | 0 | 0.0 | 0.0 | 0.00 | 0.00 | 0.00 | 84 | 1020.7 |
| 20260830101555 | 51 | 0 | 0.0 | 0.0 | 0.00 | 0.00 | 0.00 | 84 | 1020.5 |
| 20260830100056 | 51 | 0 | 0.0 | 0.0 | 0.00 | 0.00 | 0.00 | 83 | 1020.5 |
| 20260830094547 | 52 | 0 | 0.0 | 0.0 | 0.00 | 0.00 | 0.00 | 83 | 1020.6 |
| 20260830093102 | 52 | 0 | 0.0 | 0.0 | 0.00 | 0.00 | 0.00 | 82 | 1020.6 |
| 20260830091602 | 53 | 0 | 0.0 | 5.0 | 0.00 | 0.00 | 0.00 | 81 | 1020.5 |
| 20260830090100 | 53 | 162 | 1.0 | 4.0 | 0.00 | 0.00 | 0.00 | 81 | 1020.5 |
| 20260830084558 | 53 | 0 | 0.0 | 0.0 | 0.00 | 0.00 | 0.00 | 81 | 1020.6 |
| 20260830083059 | 54 | 0 | 0.0 | 0.0 | 0.00 | 0.00 | 0.00 | 80 | 1020.5 |
| 20260830081558 | 54 | 0 | 0.0 | 0.0 | 0.00 | 0.00 | 0.00 | 79 | 1020.5 |
| 20260830080059 | 55 | 0 | 0.0 | 0.0 | 0.00 | 0.00 | 0.00 | 78 | 1020.4 |
| 20260830074555 | 56 | 0 | 0.0 | 0.0 | 0.00 | 0.00 | 0.00 | 77 | 1020.5 |
| 20260830073112 | 56 | 0 | 0.0 | 2.0 | 0.00 | 0.00 | 0.00 | 75 | 1020.5 |
| 20260830071554 | 57 | 0 | 0.0 | 0.0 | 0.00 | 0.00 | 0.00 | 73 | 1020.5 |
| 20260830070058 | 58 | 0 | 0.0 | 0.0 | 0.00 | 0.00 | 0.00 | 71 | 1020.5 |
| 20260830064552 | 59 | 0 | 0.0 | 5.0 | 0.00 | 0.00 | 0.00 | 69 | 1020.5 |
| 20260830063108 | 59 | 317 | 1.0 | 3.0 | 0.00 | 0.00 | 0.00 | 69 | 1020.5 |
| 20260830061555 | 59 | 0 | 0.0 | 3.0 | 0.00 | 0.00 | 0.00 | 67 | 1020.5 |
| 20260830060057 | 60 | 322 | 1.0 | 4.0 | 0.00 | 0.00 | 0.00 | 66 | 1020.5 |
| 20260830054556 | 60 | 349 | 2.0 | 7.0 | 0.00 | 0.00 | 0.00 | 65 | 1020.6 |
| 20260830053050 | 61 | 315 | 1.0 | 6.0 | 0.00 | 0.00 | 0.00 | 63 | 1020.5 |
| 20260830051555 | 61 | 342 | 0.0 | 6.0 | 0.00 | 0.00 | 0.00 | 62 | 1020.4 |
| 20260830050106 | 62 | 338 | 1.0 | 8.0 | 0.00 | 0.00 | 0.00 | 61 | 1020.3 |
| 20260830044558 | 62 | 340 | 3.0 | 13.0 | 0.00 | 0.00 | 0.00 | 59 | 1020.2 |
| 20260830043100 | 63 | 41 | 2.0 | 11.0 | 0.00 | 0.00 | 0.00 | 58 | 1020.1 |
| 20260830041606 | 63 | 289 | 3.0 | 10.0 | 0.00 | 0.00 | 0.00 | 57 | 1019.9 |
| 20260830040115 | 64 | 327 | 3.0 | 13.0 | 0.00 | 0.00 | 0.00 | 56 | 1019.7 |
| 20260830034617 | 64 | 321 | 2.0 | 10.0 | 0.00 | 0.00 | 0.00 | 55 | 1019.5 |
| 20260830033112 | 65 | 304 | 3.0 | 12.0 | 0.00 | 0.00 | 0.00 | 54 | 1019.4 |
| 20260830031614 | 65 | 323 | 2.0 | 6.0 | 0.00 | 0.00 | 0.00 | 54 | 1019.3 |
| 20260830024602 | 67 | 349 | 5.0 | 12.0 | 0.00 | 0.00 | 0.00 | 50 | 1019.1 |
| 20260830023104 | 67 | 336 | 1.0 | 8.0 | 0.00 | 0.00 | 0.00 | 52 | 1019.1 |